Time,TemperatureF,DewpointF,PressureIn,WindDirection,WindDirectionDegrees,WindSpeedMPH,WindSpeedGustMPH,Humidity,HourlyPrecipIn,Conditions,Clouds,dailyrainin,SoftwareType,DateUTC
2013-04-28 00:03:00,43.0,-99.9,29.51,North,-999,-999.0,-999.0,58,0.00,,,0.00,,2013-04-28 04:03:00,
2013-04-28 00:13:00,43.0,29.0,29.51,North,-999,-999.0,-999.0,58,0.00,,,0.00,,2013-04-28 04:13:00,
2013-04-28 00:23:00,42.0,29.0,29.52,North,-999,-999.0,-999.0,59,0.00,,,0.00,,2013-04-28 04:23:00,
2013-04-28 00:32:00,41.0,28.0,29.52,North,-999,-999.0,-999.0,60,0.00,,,0.00,,2013-04-28 04:32:00,
2013-04-28 00:43:00,41.0,28.0,29.52,North,-999,-999.0,-999.0,60,0.00,,,0.00,,2013-04-28 04:43:00,
2013-04-28 00:53:00,41.0,29.0,29.52,North,-999,-999.0,-999.0,61,0.00,,,0.00,,2013-04-28 04:53:00,
2013-04-28 01:02:00,40.0,28.0,29.52,North,-999,-999.0,-999.0,61,0.00,,,0.00,,2013-04-28 05:02:00,
2013-04-28 01:12:00,40.0,28.0,29.52,North,-999,-999.0,-999.0,61,0.00,,,0.00,,2013-04-28 05:12:00,
2013-04-28 01:22:00,39.0,27.0,29.52,North,-999,-999.0,-999.0,62,0.00,,,0.00,,2013-04-28 05:22:00,
2013-04-28 01:32:00,39.0,27.0,29.51,North,-999,-999.0,-999.0,63,0.00,,,0.00,,2013-04-28 05:32:00,
2013-04-28 01:42:00,39.0,27.0,29.51,North,-999,-999.0,-999.0,63,0.00,,,0.00,,2013-04-28 05:42:00,
2013-04-28 01:52:00,38.0,27.0,29.51,North,-999,-999.0,-999.0,64,0.00,,,0.00,,2013-04-28 05:52:00,
2013-04-28 02:01:00,38.0,27.0,29.50,North,-999,-999.0,-999.0,65,0.00,,,0.00,,2013-04-28 06:01:00,
2013-04-28 02:12:00,38.0,27.0,29.50,North,-999,-999.0,-999.0,65,0.00,,,0.00,,2013-04-28 06:12:00,
2013-04-28 02:21:00,37.0,26.0,29.50,North,-999,-999.0,-999.0,65,0.00,,,0.00,,2013-04-28 06:21:00,
2013-04-28 02:32:00,37.0,27.0,29.50,North,-999,-999.0,-999.0,66,0.00,,,0.00,,2013-04-28 06:32:00,
2013-04-28 02:42:00,37.0,27.0,29.50,North,-999,-999.0,-999.0,66,0.00,,,0.00,,2013-04-28 06:42:00,
2013-04-28 02:52:00,37.0,27.0,29.50,North,-999,-999.0,-999.0,66,0.00,,,0.00,,2013-04-28 06:52:00,
2013-04-28 03:01:00,36.0,26.0,29.50,North,-999,-999.0,-999.0,67,0.00,,,0.00,,2013-04-28 07:01:00,
2013-04-28 03:11:00,36.0,26.0,29.50,North,-999,-999.0,-999.0,67,0.00,,,0.00,,2013-04-28 07:11:00,
2013-04-28 03:22:00,35.0,26.0,29.50,North,-999,-999.0,-999.0,68,0.00,,,0.00,,2013-04-28 07:22:00,
2013-04-28 03:32:00,35.0,26.0,29.50,North,-999,-999.0,-999.0,69,0.00,,,0.00,,2013-04-28 07:32:00,
2013-04-28 03:42:00,35.0,26.0,29.50,North,-999,-999.0,-999.0,69,0.00,,,0.00,,2013-04-28 07:42:00,
2013-04-28 03:52:00,35.0,26.0,29.50,North,-999,-999.0,-999.0,69,0.00,,,0.00,,2013-04-28 07:52:00,
2013-04-28 04:02:00,35.0,26.0,29.49,North,-999,-999.0,-999.0,70,0.00,,,0.00,,2013-04-28 08:02:00,
2013-04-28 04:11:00,35.0,26.0,29.49,North,-999,-999.0,-999.0,70,0.00,,,0.00,,2013-04-28 08:11:00,
2013-04-28 04:21:00,34.0,26.0,29.49,North,-999,-999.0,-999.0,71,0.00,,,0.00,,2013-04-28 08:21:00,
2013-04-28 04:32:00,34.0,26.0,29.49,North,-999,-999.0,-999.0,71,0.00,,,0.00,,2013-04-28 08:32:00,
2013-04-28 04:42:00,34.0,26.0,29.49,North,-999,-999.0,-999.0,71,0.00,,,0.00,,2013-04-28 08:42:00,
2013-04-28 04:52:00,34.0,26.0,29.49,North,-999,-999.0,-999.0,71,0.00,,,0.00,,2013-04-28 08:52:00,
2013-04-28 05:01:00,34.0,26.0,29.49,North,-999,-999.0,-999.0,71,0.00,,,0.00,,2013-04-28 09:01:00,
2013-04-28 05:12:00,34.0,26.0,29.49,North,-999,-999.0,-999.0,71,0.00,,,0.00,,2013-04-28 09:12:00,
2013-04-28 05:22:00,34.0,26.0,29.48,North,-999,-999.0,-999.0,72,0.00,,,0.00,,2013-04-28 09:22:00,
2013-04-28 05:33:00,33.0,25.0,29.49,North,-999,-999.0,-999.0,72,0.00,,,0.00,,2013-04-28 09:33:00,
2013-04-28 05:42:00,33.0,25.0,29.49,North,-999,-999.0,-999.0,72,0.00,,,0.00,,2013-04-28 09:42:00,
2013-04-28 05:53:00,33.0,25.0,29.49,North,-999,-999.0,-999.0,72,0.00,,,0.00,,2013-04-28 09:53:00,
2013-04-28 06:03:00,33.0,25.0,29.49,North,-999,-999.0,-999.0,73,0.00,,,0.00,,2013-04-28 10:03:00,
2013-04-28 06:12:00,33.0,25.0,29.49,North,-999,-999.0,-999.0,73,0.00,,,0.00,,2013-04-28 10:12:00,
2013-04-28 06:23:00,33.0,26.0,29.49,North,-999,-999.0,-999.0,74,0.00,,,0.00,,2013-04-28 10:23:00,
2013-04-28 06:32:00,33.0,26.0,29.49,North,-999,-999.0,-999.0,74,0.00,,,0.00,,2013-04-28 10:32:00,
2013-04-28 06:42:00,33.0,26.0,29.49,North,-999,-999.0,-999.0,74,0.00,,,0.00,,2013-04-28 10:42:00,
2013-04-28 06:53:00,33.0,26.0,29.49,North,-999,-999.0,-999.0,74,0.00,,,0.00,,2013-04-28 10:53:00,
2013-04-28 07:02:00,34.0,27.0,29.50,North,-999,-999.0,-999.0,74,0.00,,,0.00,,2013-04-28 11:02:00,
2013-04-28 07:11:00,34.0,27.0,29.50,North,-999,-999.0,-999.0,74,0.00,,,0.00,,2013-04-28 11:11:00,
2013-04-28 07:22:00,34.0,27.0,29.50,North,-999,-999.0,-999.0,74,0.00,,,0.00,,2013-04-28 11:22:00,
2013-04-28 07:32:00,35.0,28.0,29.50,North,-999,-999.0,-999.0,74,0.00,,,0.00,,2013-04-28 11:32:00,
2013-04-28 07:42:00,35.0,28.0,29.50,North,-999,-999.0,-999.0,74,0.00,,,0.00,,2013-04-28 11:42:00,
2013-04-28 07:52:00,36.0,29.0,29.50,North,-999,-999.0,-999.0,74,0.00,,,0.00,,2013-04-28 11:52:00,
2013-04-28 08:02:00,39.0,31.0,29.50,North,-999,-999.0,-999.0,74,0.00,,,0.00,,2013-04-28 12:02:00,
2013-04-28 08:12:00,39.0,31.0,29.50,North,-999,-999.0,-999.0,74,0.00,,,0.00,,2013-04-28 12:12:00,
2013-04-28 08:22:00,42.0,33.0,29.50,North,-999,-999.0,-999.0,71,0.00,,,0.00,,2013-04-28 12:22:00,
2013-04-28 08:32:00,44.0,34.0,29.51,North,-999,-999.0,-999.0,69,0.00,,,0.00,,2013-04-28 12:32:00,
2013-04-28 08:42:00,44.0,34.0,29.51,North,-999,-999.0,-999.0,69,0.00,,,0.00,,2013-04-28 12:42:00,
2013-04-28 08:52:00,44.0,34.0,29.51,North,-999,-999.0,-999.0,69,0.00,,,0.00,,2013-04-28 12:52:00,
2013-04-28 09:02:00,48.0,37.0,29.51,North,-999,-999.0,-999.0,65,0.00,,,0.00,,2013-04-28 13:02:00,
2013-04-28 09:11:00,48.0,37.0,29.51,North,-999,-999.0,-999.0,65,0.00,,,0.00,,2013-04-28 13:11:00,
2013-04-28 09:21:00,51.0,38.0,29.52,North,-999,-999.0,-999.0,62,0.00,,,0.00,,2013-04-28 13:21:00,
2013-04-28 09:32:00,54.0,40.0,29.52,North,-999,-999.0,-999.0,59,0.00,,,0.00,,2013-04-28 13:32:00,
2013-04-28 09:42:00,54.0,40.0,29.52,North,-999,-999.0,-999.0,59,0.00,,,0.00,,2013-04-28 13:42:00,
2013-04-28 09:52:00,57.0,40.0,29.52,North,-999,-999.0,-999.0,53,0.00,,,0.00,,2013-04-28 13:52:00,
2013-04-28 10:02:00,59.0,41.0,29.52,North,-999,-999.0,-999.0,51,0.00,,,0.00,,2013-04-28 14:02:00,
2013-04-28 10:11:00,59.0,41.0,29.52,North,-999,-999.0,-999.0,51,0.00,,,0.00,,2013-04-28 14:11:00,
2013-04-28 10:22:00,59.0,40.0,29.52,North,-999,-999.0,-999.0,49,0.00,,,0.00,,2013-04-28 14:22:00,
2013-04-28 10:32:00,62.0,41.0,29.51,North,-999,-999.0,-999.0,46,0.00,,,0.00,,2013-04-28 14:32:00,
2013-04-28 10:42:00,62.0,41.0,29.51,North,-999,-999.0,-999.0,46,0.00,,,0.00,,2013-04-28 14:42:00,
2013-04-28 10:52:00,63.0,40.0,29.51,North,-999,-999.0,-999.0,43,0.00,,,0.00,,2013-04-28 14:52:00,
2013-04-28 11:02:00,65.0,41.0,29.51,North,-999,-999.0,-999.0,42,0.00,,,0.00,,2013-04-28 15:02:00,
2013-04-28 11:12:00,65.0,41.0,29.51,North,-999,-999.0,-999.0,42,0.00,,,0.00,,2013-04-28 15:12:00,
2013-04-28 11:21:00,66.0,41.0,29.51,North,-999,-999.0,-999.0,40,0.00,,,0.00,,2013-04-28 15:21:00,
2013-04-28 11:32:00,67.0,41.0,29.50,North,-999,-999.0,-999.0,39,0.00,,,0.00,,2013-04-28 15:32:00,
2013-04-28 11:42:00,67.0,41.0,29.50,North,-999,-999.0,-999.0,39,0.00,,,0.00,,2013-04-28 15:42:00,
2013-04-28 11:53:00,68.0,41.0,29.50,North,-999,-999.0,-999.0,37,0.00,,,0.00,,2013-04-28 15:53:00,
2013-04-28 12:03:00,69.0,42.0,29.50,North,-999,-999.0,-999.0,37,0.00,,,0.00,,2013-04-28 16:03:00,
2013-04-28 12:13:00,69.0,42.0,29.50,North,-999,-999.0,-999.0,37,0.00,,,0.00,,2013-04-28 16:13:00,
2013-04-28 12:23:00,70.0,41.0,29.49,North,-999,-999.0,-999.0,35,0.00,,,0.00,,2013-04-28 16:23:00,
2013-04-28 12:33:00,70.0,41.0,29.49,North,-999,-999.0,-999.0,35,0.00,,,0.00,,2013-04-28 16:33:00,
2013-04-28 12:42:00,70.0,41.0,29.49,North,-999,-999.0,-999.0,35,0.00,,,0.00,,2013-04-28 16:42:00,
2013-04-28 12:52:00,71.0,41.0,29.48,North,-999,-999.0,-999.0,34,0.00,,,0.00,,2013-04-28 16:52:00,
2013-04-28 13:02:00,71.0,40.0,29.47,North,-999,-999.0,-999.0,33,0.00,,,0.00,,2013-04-28 17:02:00,
2013-04-28 13:12:00,71.0,40.0,29.47,North,-999,-999.0,-999.0,33,0.00,,,0.00,,2013-04-28 17:12:00,
2013-04-28 13:22:00,73.0,41.0,29.47,North,-999,-999.0,-999.0,32,0.00,,,0.00,,2013-04-28 17:22:00,
2013-04-28 13:32:00,73.0,41.0,29.47,North,-999,-999.0,-999.0,31,0.00,,,0.00,,2013-04-28 17:32:00,
2013-04-28 13:42:00,73.0,41.0,29.47,North,-999,-999.0,-999.0,31,0.00,,,0.00,,2013-04-28 17:42:00,
2013-04-28 13:52:00,74.0,41.0,29.46,North,-999,-999.0,-999.0,31,0.00,,,0.00,,2013-04-28 17:52:00,
2013-04-28 14:02:00,75.0,41.0,29.46,North,-999,-999.0,-999.0,30,0.00,,,0.00,,2013-04-28 18:02:00,
2013-04-28 14:12:00,75.0,41.0,29.46,North,-999,-999.0,-999.0,30,0.00,,,0.00,,2013-04-28 18:12:00,
2013-04-28 14:22:00,75.0,41.0,29.45,North,-999,-999.0,-999.0,30,0.00,,,0.00,,2013-04-28 18:22:00,
2013-04-28 14:32:00,76.0,42.0,29.45,North,-999,-999.0,-999.0,30,0.00,,,0.00,,2013-04-28 18:32:00,
2013-04-28 14:42:00,76.0,42.0,29.45,North,-999,-999.0,-999.0,30,0.00,,,0.00,,2013-04-28 18:42:00,
2013-04-28 14:52:00,76.0,41.0,29.45,North,-999,-999.0,-999.0,29,0.00,,,0.00,,2013-04-28 18:52:00,
2013-04-28 15:02:00,78.0,43.0,29.44,North,-999,-999.0,-999.0,29,0.00,,,0.00,,2013-04-28 19:02:00,
2013-04-28 15:11:00,78.0,43.0,29.44,North,-999,-999.0,-999.0,29,0.00,,,0.00,,2013-04-28 19:11:00,
2013-04-28 15:22:00,77.0,44.0,29.43,North,-999,-999.0,-999.0,31,0.00,,,0.00,,2013-04-28 19:22:00,
2013-04-28 15:32:00,76.0,43.0,29.42,North,-999,-999.0,-999.0,31,0.00,,,0.00,,2013-04-28 19:32:00,
2013-04-28 15:42:00,76.0,43.0,29.42,North,-999,-999.0,-999.0,31,0.00,,,0.00,,2013-04-28 19:42:00,
2013-04-28 15:52:00,76.0,43.0,29.43,North,-999,-999.0,-999.0,31,0.00,,,0.00,,2013-04-28 19:52:00,
2013-04-28 16:02:00,75.0,42.0,29.42,North,-999,-999.0,-999.0,31,0.00,,,0.00,,2013-04-28 20:02:00,
2013-04-28 16:12:00,75.0,42.0,29.42,North,-999,-999.0,-999.0,31,0.00,,,0.00,,2013-04-28 20:12:00,
2013-04-28 16:22:00,74.0,41.0,29.42,North,-999,-999.0,-999.0,31,0.00,,,0.00,,2013-04-28 20:22:00,
2013-04-28 16:32:00,73.0,41.0,29.42,North,-999,-999.0,-999.0,31,0.00,,,0.00,,2013-04-28 20:32:00,
2013-04-28 16:42:00,73.0,41.0,29.42,North,-999,-999.0,-999.0,31,0.00,,,0.00,,2013-04-28 20:42:00,
2013-04-28 16:52:00,72.0,40.0,29.42,North,-999,-999.0,-999.0,31,0.00,,,0.00,,2013-04-28 20:52:00,
2013-04-28 17:01:00,71.0,39.0,29.42,North,-999,-999.0,-999.0,31,0.00,,,0.00,,2013-04-28 21:01:00,
2013-04-28 17:11:00,71.0,39.0,29.42,North,-999,-999.0,-999.0,31,0.00,,,0.00,,2013-04-28 21:11:00,
2013-04-28 17:22:00,69.0,38.0,29.42,North,-999,-999.0,-999.0,32,0.00,,,0.00,,2013-04-28 21:22:00,
2013-04-28 17:33:00,69.0,38.0,29.42,North,-999,-999.0,-999.0,32,0.00,,,0.00,,2013-04-28 21:33:00,
2013-04-28 17:42:00,69.0,38.0,29.42,North,-999,-999.0,-999.0,32,0.00,,,0.00,,2013-04-28 21:42:00,
2013-04-28 17:53:00,68.0,38.0,29.42,North,-999,-999.0,-999.0,33,0.00,,,0.00,,2013-04-28 21:53:00,
2013-04-28 18:03:00,68.0,37.0,29.42,North,-999,-999.0,-999.0,32,0.00,,,0.00,,2013-04-28 22:03:00,
2013-04-28 18:13:00,68.0,37.0,29.42,North,-999,-999.0,-999.0,32,0.00,,,0.00,,2013-04-28 22:13:00,
2013-04-28 18:23:00,75.0,40.0,29.42,North,-999,-999.0,-999.0,28,0.00,,,0.00,,2013-04-28 22:23:00,
2013-04-28 18:33:00,75.0,40.0,29.42,North,-999,-999.0,-999.0,28,0.00,,,0.00,,2013-04-28 22:33:00,
2013-04-28 18:42:00,75.0,40.0,29.42,North,-999,-999.0,-999.0,28,0.00,,,0.00,,2013-04-28 22:42:00,
2013-04-28 18:52:00,75.0,40.0,29.42,North,-999,-999.0,-999.0,28,0.00,,,0.00,,2013-04-28 22:52:00,
2013-04-28 19:02:00,67.0,35.0,29.42,North,-999,-999.0,-999.0,30,0.00,,,0.00,,2013-04-28 23:02:00,
2013-04-28 19:12:00,67.0,35.0,29.42,North,-999,-999.0,-999.0,30,0.00,,,0.00,,2013-04-28 23:12:00,
2013-04-28 19:22:00,67.0,35.0,29.42,North,-999,-999.0,-999.0,30,0.00,,,0.00,,2013-04-28 23:22:00,
2013-04-28 19:32:00,60.0,32.0,29.43,North,-999,-999.0,-999.0,35,0.00,,,0.00,,2013-04-28 23:32:00,
2013-04-28 19:42:00,60.0,32.0,29.43,North,-999,-999.0,-999.0,35,0.00,,,0.00,,2013-04-28 23:42:00,
2013-04-28 19:52:00,57.0,32.0,29.43,North,-999,-999.0,-999.0,38,0.00,,,0.00,,2013-04-28 23:52:00,
2013-04-28 20:01:00,56.0,31.0,29.42,North,-999,-999.0,-999.0,39,0.00,,,0.00,,2013-04-29 00:01:00,
2013-04-28 20:11:00,56.0,31.0,29.42,North,-999,-999.0,-999.0,39,0.00,,,0.00,,2013-04-29 00:11:00,
2013-04-28 20:22:00,54.0,31.0,29.42,North,-999,-999.0,-999.0,42,0.00,,,0.00,,2013-04-29 00:22:00,
2013-04-28 20:32:00,53.0,32.0,29.42,North,-999,-999.0,-999.0,44,0.00,,,0.00,,2013-04-29 00:32:00,
2013-04-28 20:42:00,53.0,32.0,29.42,North,-999,-999.0,-999.0,44,0.00,,,0.00,,2013-04-29 00:42:00,
2013-04-28 20:52:00,52.0,31.0,29.42,North,-999,-999.0,-999.0,45,0.00,,,0.00,,2013-04-29 00:52:00,
2013-04-28 21:01:00,52.0,31.0,29.42,North,-999,-999.0,-999.0,45,0.00,,,0.00,,2013-04-29 01:01:00,
2013-04-28 21:12:00,51.0,31.0,29.42,North,-999,-999.0,-999.0,47,0.00,,,0.00,,2013-04-29 01:12:00,
2013-04-28 21:22:00,51.0,31.0,29.42,North,-999,-999.0,-999.0,47,0.00,,,0.00,,2013-04-29 01:22:00,
2013-04-28 21:32:00,50.0,31.0,29.43,North,-999,-999.0,-999.0,47,0.00,,,0.00,,2013-04-29 01:32:00,
2013-04-28 21:42:00,50.0,31.0,29.43,North,-999,-999.0,-999.0,47,0.00,,,0.00,,2013-04-29 01:42:00,
2013-04-28 21:52:00,50.0,31.0,29.43,North,-999,-999.0,-999.0,48,0.00,,,0.00,,2013-04-29 01:52:00,
2013-04-28 22:02:00,49.0,31.0,29.44,North,-999,-999.0,-999.0,49,0.00,,,0.00,,2013-04-29 02:02:00,
2013-04-28 22:11:00,49.0,31.0,29.44,North,-999,-999.0,-999.0,49,0.00,,,0.00,,2013-04-29 02:11:00,
2013-04-28 22:22:00,48.0,30.0,29.44,North,-999,-999.0,-999.0,50,0.00,,,0.00,,2013-04-29 02:22:00,
2013-04-28 22:32:00,48.0,30.0,29.44,North,-999,-999.0,-999.0,50,0.00,,,0.00,,2013-04-29 02:32:00,
2013-04-28 22:42:00,48.0,30.0,29.44,North,-999,-999.0,-999.0,50,0.00,,,0.00,,2013-04-29 02:42:00,
2013-04-28 22:52:00,48.0,30.0,29.44,North,-999,-999.0,-999.0,50,0.00,,,0.00,,2013-04-29 02:52:00,
2013-04-28 23:01:00,46.0,30.0,29.44,North,-999,-999.0,-999.0,54,0.00,,,0.00,,2013-04-29 03:01:00,
2013-04-28 23:12:00,46.0,30.0,29.44,North,-999,-999.0,-999.0,54,0.00,,,0.00,,2013-04-29 03:12:00,
2013-04-28 23:22:00,46.0,31.0,29.44,North,-999,-999.0,-999.0,55,0.00,,,0.00,,2013-04-29 03:22:00,
2013-04-28 23:33:00,45.0,30.0,29.44,North,-999,-999.0,-999.0,56,0.00,,,0.00,,2013-04-29 03:33:00,
2013-04-28 23:42:00,45.0,30.0,29.44,North,-999,-999.0,-999.0,56,0.00,,,0.00,,2013-04-29 03:42:00,
2013-04-28 23:53:00,45.0,31.0,29.44,North,-999,-999.0,-999.0,57,0.00,,,0.00,,2013-04-29 03:53:00,